TimePDT,TemperatureF,Dew PointF,Humidity,Sea Level PressureIn,VisibilityMPH,Wind Direction,Wind SpeedMPH,Gust SpeedMPH,PrecipitationIn,Events,Conditions,WindDirDegrees,DateUTC
12:53 AM,43.0,41.0,93,30.30,6.0,East,5.8,-,N/A,,Clear,80,2014-03-15 07:53:00
1:53 AM,43.0,41.0,93,30.27,7.0,East,6.9,-,N/A,,Mostly Cloudy,80,2014-03-15 08:53:00
2:53 AM,44.1,39.9,85,30.24,7.0,East,4.6,-,N/A,,Overcast,90,2014-03-15 09:53:00
3:53 AM,43.0,41.0,93,30.24,7.0,ENE,5.8,-,N/A,,Mostly Cloudy,60,2014-03-15 10:53:00
4:53 AM,43.0,39.9,89,30.21,7.0,East,4.6,-,N/A,,Overcast,100,2014-03-15 11:53:00
5:53 AM,42.1,41.0,96,30.21,5.0,ENE,3.5,-,0.00,Rain,Light Rain,70,2014-03-15 12:53:00
6:53 AM,42.1,41.0,96,30.19,6.0,Calm,Calm,-,0.01,,Overcast,0,2014-03-15 13:53:00
7:53 AM,45.0,39.9,82,30.18,6.0,SE,4.6,-,0.00,Rain,Light Rain,130,2014-03-15 14:53:00
8:45 AM,46.0,42.1,86,30.18,1.8,SSE,9.2,21.9,0.01,Rain,Light Rain,150,2014-03-15 15:45:00
8:53 AM,46.0,42.1,86,30.18,2.5,SSE,13.8,24.2,0.02,Rain,Light Rain,160,2014-03-15 15:53:00
9:00 AM,46.0,42.1,86,30.17,5.0,SSE,9.2,21.9,0.00,Rain,Light Rain,160,2014-03-15 16:00:00
9:53 AM,46.9,44.1,90,30.17,3.0,SSE,13.8,20.7,0.00,,Overcast,150,2014-03-15 16:53:00
10:43 AM,46.9,45.0,93,30.16,2.5,SSE,12.7,26.5,0.00,Rain,Light Rain,150,2014-03-15 17:43:00
10:53 AM,48.0,45.0,89,30.16,2.5,SSE,12.7,23.0,0.00,,Overcast,150,2014-03-15 17:53:00
11:01 AM,48.0,46.0,93,30.15,3.0,SSE,13.8,21.9,0.00,Rain,Light Rain,150,2014-03-15 18:01:00
11:22 AM,48.9,46.9,93,30.14,2.5,SSE,11.5,26.5,0.00,,Overcast,150,2014-03-15 18:22:00
11:51 AM,48.2,46.4,93,30.14,1.8,South,11.5,23.0,0.00,Rain,Light Rain,170,2014-03-15 18:51:00
11:53 AM,48.9,46.9,93,30.14,1.8,SSE,12.7,23.0,0.00,Rain,Light Rain,150,2014-03-15 18:53:00
12:18 PM,50.0,48.0,93,30.13,3.0,SSE,12.7,24.2,0.00,,Overcast,160,2014-03-15 19:18:00
12:53 PM,50.0,48.9,96,30.15,3.0,South,16.1,27.6,0.01,,Overcast,190,2014-03-15 19:53:00
1:06 PM,50.0,48.9,96,30.15,2.5,South,15.0,27.6,N/A,,Overcast,180,2014-03-15 20:06:00
1:18 PM,50.0,48.9,96,30.15,4.0,South,16.1,28.8,0.00,Rain,Light Rain,170,2014-03-15 20:18:00
1:33 PM,50.0,48.9,96,30.13,1.8,SSE,13.8,35.7,0.00,Rain,Light Rain,160,2014-03-15 20:33:00
1:50 PM,50.0,50.0,100,30.13,3.0,South,18.4,33.4,0.01,Rain,Light Rain,170,2014-03-15 20:50:00
1:53 PM,50.0,50.0,100,30.13,4.0,South,15.0,33.4,0.01,Rain,Light Rain,170,2014-03-15 20:53:00
2:04 PM,50.0,50.0,100,30.12,1.8,South,13.8,32.2,0.01,Rain,Rain,170,2014-03-15 21:04:00
2:08 PM,50.0,50.0,100,30.12,0.8,South,11.5,31.1,0.03,Rain,Heavy Rain,170,2014-03-15 21:08:00
2:53 PM,50.0,50.0,100,30.14,0.5,South,15.0,28.8,0.40,Fog-Rain,Heavy Rain,180,2014-03-15 21:53:00
3:22 PM,50.0,50.0,100,30.12,1.2,South,15.0,26.5,0.17,Rain,Heavy Rain,190,2014-03-15 22:22:00
3:35 PM,50.0,50.0,100,30.12,0.5,South,16.1,27.6,0.26,Fog-Rain,Heavy Rain,190,2014-03-15 22:35:00
3:53 PM,50.0,50.0,100,30.14,0.5,South,15.0,31.1,0.42,Fog-Rain,Heavy Rain,170,2014-03-15 22:53:00
4:51 PM,50.0,50.0,100,30.12,1.0,South,13.8,27.6,0.40,Rain,Rain,190,2014-03-15 23:51:00
4:53 PM,50.0,50.0,100,30.13,1.2,South,13.8,27.6,0.41,Rain,Rain,180,2014-03-15 23:53:00
5:05 PM,50.0,50.0,100,30.11,1.5,South,15.0,28.8,0.03,Rain,Rain,180,2014-03-16 00:05:00
5:25 PM,50.0,50.0,100,30.13,1.8,SSW,13.8,29.9,0.07,Rain,Rain,210,2014-03-16 00:25:00
5:46 PM,50.0,50.0,100,30.13,0.8,SSW,10.4,26.5,0.13,Rain,Heavy Rain,200,2014-03-16 00:46:00
5:53 PM,50.0,50.0,100,30.15,0.5,South,15.0,26.5,0.16,Fog-Rain,Rain,190,2014-03-16 00:53:00
6:41 PM,50.0,50.0,100,30.16,1.2,SW,15.0,24.2,0.22,Rain,Rain,220,2014-03-16 01:41:00
6:53 PM,50.0,50.0,100,30.16,1.5,SW,10.4,20.7,0.25,Rain,Light Rain,220,2014-03-16 01:53:00
7:01 PM,50.0,50.0,100,30.14,2.5,SSW,11.5,20.7,0.02,Rain,Rain,210,2014-03-16 02:01:00
7:13 PM,50.0,50.0,100,30.15,3.0,SSW,12.7,19.6,0.02,Rain,Light Rain,210,2014-03-16 02:13:00
7:50 PM,50.0,50.0,100,30.15,2.0,SSW,8.1,-,0.06,Rain,Light Rain,200,2014-03-16 02:50:00
7:53 PM,50.0,50.0,100,30.15,1.8,SSW,10.4,-,0.07,Rain,Light Rain,200,2014-03-16 02:53:00
8:15 PM,50.0,50.0,100,30.16,3.0,SSW,10.4,18.4,0.04,Rain,Light Rain,200,2014-03-16 03:15:00
8:29 PM,50.0,50.0,100,30.17,2.5,SW,11.5,-,0.06,Rain,Light Rain,230,2014-03-16 03:29:00
8:43 PM,50.0,50.0,100,30.18,5.0,SW,10.4,-,0.08,,Overcast,220,2014-03-16 03:43:00
8:53 PM,50.0,50.0,100,30.20,4.0,SW,10.4,-,0.08,Rain,Light Rain,220,2014-03-16 03:53:00
9:49 PM,50.0,50.0,100,30.17,4.0,South,5.8,-,0.01,Rain,Light Rain,180,2014-03-16 04:49:00
9:53 PM,50.0,50.0,100,30.18,4.0,South,8.1,-,0.01,Rain,Light Rain,170,2014-03-16 04:53:00
10:01 PM,50.0,50.0,100,30.18,4.0,South,6.9,-,0.00,Rain,Light Rain,190,2014-03-16 05:01:00
10:09 PM,50.0,50.0,100,30.19,4.0,SSW,6.9,-,0.00,,Overcast,200,2014-03-16 05:09:00
10:53 PM,50.0,50.0,100,30.20,3.0,SSW,6.9,-,0.02,Rain,Light Rain,200,2014-03-16 05:53:00
11:53 PM,50.0,50.0,100,30.22,5.0,SW,8.1,-,0.01,,Overcast,220,2014-03-16 06:53:00